EUTE 28A (EB 1)

导读

EUTE 28A(EB 1)是欧洲通信卫星组织(Eutelsat)于2001年3月8日发射的通信卫星,隶属于该组织卫星舰队体系。卫星定位于东经28度轨位,主要服务欧洲区域,承担电视广播、数据传输等通信业务。遵循Eutelsat统一命名规则,名称关联轨位信息,是该组织早期全球通信布局的重要节点,为区域媒体传输、宽带服务提供空间基础设施支撑。

Basic Information
目录编号:
26719
目录名称:
EUTE 28A (EB 1)
国际标识:
2001-011A
轨道中心:
EARTH
卫星名称:
EUTE 28A (EB 1)
卫星全名:
--
卫星状态:
在轨 (已飞行9259 天)
发射日期:
2001-03-08 UTC
国别 :
(EUTE)
星等 :
--
Orbit Information
数据来源 国际轨道数据 AOE轨道数据
星历时间 2026-07-13T21:57:13+0800
20小时前
查看轨道信息
2026-07-13T21:00:00+0800
21小时前
查看轨道信息
半长轴 42584.366km 42584.395km
偏心率 0.0005124 0.0005143
轨道倾角 7.446° 7.446°
近地点辐角 320.343° 321.067°
升交点赤经 67.062° 67.065°
平近点角 253.348° 238.488°
近地点 36184.408km 36184.356km
远地点 36228.05km 36228.16km
周期 1457.589分钟 1457.590分钟
每日圈数 0.987933 0.987932
Detailed Information
使用方式:
暂无
2D Orbit Map
3D Orbit Map
Orbit Altitude Analysis Chart
Orbit Inclination Analysis Chart
Orbit Comprehensive Analysis Chart
View Comprehensive Chart